Torna al catalogo

THORAD DELTA 1 DEB

AttivoSSO
NORAD 8184·DEBRIS·🇺🇸 United States

Lanciato Nov 15, 1974 da Vandenberg Space Force Base

Loading…

Prossimi Passaggi (prossime 24 ore)

TLE

AggiornatoSource: Space-Track

Epoca: Sep 14, 2026, 07:38 UTC

1 08184U 74089BA  26257.31810396 -.00000032  00000-0  75202-4 0  9998
2 08184 101.5523 214.9206 0063418 301.3616 221.0054 12.47613896360028

Traccia THORAD DELTA 1 DEB in tempo reale con AllMySat

Download on the App Store